Location: Lafig�re
(44.4503°N, 4.0357°E)
Time: 14:33:22
(UTC+00:00)

ARGOS - Pass Details

Date: 27 January 2021
Orbit: 821 x 834 km, 98.4° (Epoch: 05 March)

Event Time Altitude Azimuth Distance (km) Brightness Sun altitude
Rises 18:39:17 0° 162° (SSE) 3,341 6.2 -20.2°
Reaches altitude 10° 18:41:37 10° 162° (SSE) 2,414 5.4 -20.6°
Maximum altitude 18:46:58 84° 76° (ENE) 834 3.0 -21.5°
Drops below altitude 10° 18:52:23 10° 348° (NNW) 2,439 5.7 -22.5°
Sets 18:54:45 0° 348° (NNW) 3,378 6.4 -22.9°
